#timestamp,LO_Frequency,Hit,StdDev 
1512172815.3,286046999.2,N
1512172835.1,286046998.8,N
1512172855.9,286046999.1,N
1512172875.7,286046996.6,Y
1512172895.5,286046998.7,P
1512172915.4,286046996.6,P
1512172935.2,286046998.7,N
1512172955.0,286046998.3,N
1512172955.9,286046998.3,N
1512172975.8,286047000.3,N
1512172995.6,286046999.8,N
1512173015.5,286046999.8,N
1512173035.3,286047002.9,N
1512173055.1,286047005.5,Y
1512173075.9,286047003.0,P
1512173095.7,286047003.7,N
1512173115.6,286047003.8,N
1512173135.4,286047003.1,N
1512173155.2,286047004.2,N
1512173175.1,286047004.0,N
1512173176.0,286047004.0,N
1512173195.8,286047003.9,N
1512173215.6,286047004.4,N
1512173235.5,286047003.1,N
1512173255.3,286047004.2,Y
1512173275.2,286046998.2,P
1512173295.9,286046998.3,N
1512173315.7,286046998.6,N
1512173335.6,286047001.0,N
1512173355.4,286046998.1,N
1512173375.2,286046998.5,N
1512173395.1,286047000.8,N
1512173396.0,286047000.8,N
1512173415.8,286046998.1,N
1512173435.7,286047001.2,N
1512173455.5,286047000.1,N
1512173475.3,286047001.2,N
1512173495.2,286046998.5,N
1512173515.0,286046998.1,N
1512173515.9,286046998.1,N
1512173535.8,286047001.2,N
1512173555.6,286047002.1,N
1512173575.4,286047002.4,N
1512173595.3,286047000.2,N
1512173615.1,286047002.4,N
1512173635.9,286046999.7,N
1512173655.7,286046998.7,N
1512173675.5,286046998.6,N
1512173695.4,286046997.0,N
1512173715.2,286046999.4,N
1512173735.0,286046999.0,N
1512173736.0,286046999.0,N
1512173755.8,286046999.0,N
1512173775.6,286046999.1,N
1512173795.5,286046996.8,N
1512173815.3,286046998.4,N
1512173835.1,286046998.6,N
1512173855.9,286047000.7,N
1512173875.7,286046998.3,N
1512173895.6,286046999.4,N
1512173915.4,286046999.1,N
1512173935.2,286046999.4,N
1512173955.1,286046998.4,N
1512173956.0,286046998.4,N
1512173975.8,286046999.0,N
1512173995.6,286046998.7,N
1512174015.5,286047001.0,N
1512174035.3,286047000.0,N
1512174055.2,286047000.4,N
1512174075.9,286047002.0,N
1512174095.7,286047002.4,N
1512174115.6,286047001.0,N
1512174135.4,286047001.0,N
1512174155.3,286047000.3,N
1512174175.1,286047002.3,N
1512174176.0,286047002.3,N
1512174195.8,286047001.4,N
1512174215.7,286047004.0,N
1512174235.5,286047002.3,N
1512174255.3,286047002.5,N
1512174275.2,286046999.9,N
1512174295.0,286047000.2,N
1512174295.9,286047000.2,N
1512174315.8,286047001.8,N
1512174335.6,286047002.1,N
1512174355.4,286047002.5,N
1512174375.3,286047002.5,N
1512174395.1,286047002.8,N
1512174415.9,286047002.2,N
1512174435.7,286047000.2,N
1512174455.5,286047002.4,N
1512174475.4,286047000.1,N
1512174495.2,286046999.7,N
1512174515.0,286047002.2,N
1512174516.0,286047002.2,N
1512174535.8,286047001.0,N
1512174555.6,286046999.7,N
1512174575.5,286047000.7,N
1512174595.3,286047002.3,N
1512174615.1,286047001.3,N
1512174635.9,286046999.7,N
1512174655.7,286047002.2,N
1512174675.6,286047001.5,N
1512174695.4,286047002.5,N
1512174715.2,286047000.1,N
1512174735.1,286047000.0,N
1512174736.0,286047000.0,N
1512174755.8,286047000.6,N
1512174775.7,286047000.5,N
1512174795.5,286047000.5,N
1512174815.3,286047002.8,N
1512174835.2,286046999.9,N
1512174855.0,286047002.6,N
1512174855.9,286047002.6,N
1512174875.8,286047002.2,N
1512174895.6,286047002.6,N
1512174915.4,286047002.7,N
1512174935.3,286046999.7,N
1512174955.1,286047002.8,N
1512174975.8,286046999.7,N
1512174995.7,286047000.6,N
1512175015.5,286046998.2,N
1512175035.4,286046998.5,N
1512175055.2,286047000.6,N
1512175075.0,286047000.5,N
1512175075.9,286047000.5,N
1512175095.8,286046998.2,N
1512175115.6,286047000.9,N
1512175135.5,286047001.1,N
1512175155.3,286047000.4,N
1512175175.1,286046998.5,N
1512175195.9,286046998.2,N
1512175215.7,286046998.1,N
1512175235.5,286046998.9,N
1512175255.4,286046998.7,N
1512175275.2,286046998.6,N
1512175295.1,286046998.8,N
1512175296.0,286046998.8,N
1512175315.8,286046998.3,N
1512175335.6,286047001.0,N
1512175355.5,286047000.6,N
1512175375.3,286047002.4,N
1512175395.2,286047005.6,Y
1512175415.9,286047005.8,P
1512175435.7,286047004.4,N
1512175455.6,286047001.9,N
1512175475.4,286047002.5,N
1512175495.2,286047003.9,N
1512175515.1,286047002.6,N
1512175516.0,286047002.6,N
1512175535.8,286047002.8,N
1512175555.7,286047000.1,N
1512175575.5,286046999.8,N
1512175595.3,286047000.1,N
1512175615.2,286047001.0,N
1512175635.0,286047000.5,N
1512175635.9,286047000.5,N
1512175655.8,286046999.9,N
1512175675.6,286047000.1,N
1512175695.4,286047000.6,N
1512175715.3,286047000.6,N
1512175735.1,286047001.2,N
1512175755.8,286046998.2,N
1512175775.7,286047000.7,N
1512175795.5,286047002.7,N
1512175815.4,286047000.0,N
1512175835.2,286046998.1,N
1512175855.0,286046998.2,N
1512175855.9,286046998.2,N
1512175875.8,286046998.5,N
1512175895.6,286047000.6,N
1512175915.4,286047000.6,N
1512175935.3,286047002.7,N
1512175955.1,286047001.4,N
1512175975.9,286047002.3,N
1512175995.7,286047001.0,N
1512176015.5,286046998.5,N
1512176035.4,286046999.4,N
1512176055.2,286046998.7,N
1512176075.1,286046999.7,N
1512176076.0,286046999.7,N
1512176095.8,286047002.2,N
1512176115.6,286047002.5,N
1512176135.5,286047000.9,N
1512176155.3,286046998.4,N
1512176175.1,286046998.9,N
1512176195.9,286046998.2,N
1512176215.7,286046998.2,N
1512176235.6,286047000.4,N
1512176255.4,286047000.8,N
1512176275.2,286046998.6,N
1512176295.1,286046998.5,N
1512176296.0,286046998.5,N
1512176315.8,286046999.9,N
1512176335.6,286047000.5,N
1512176355.5,286047000.9,N
1512176375.3,286047002.4,N
1512176395.2,286047000.0,N
